• In Czech Republic
  • List of Countries
  • For 7 days
  • Water Temperature
  • Satellite Maps
  • Weather Map
  • Weather Widgets
  • user-avatar
    Login

    Hourly Weather Murfatlar

    Today, 18 September, Tuesday

    Time Temperature Precipitation Wind Pressure Humidity
    00:00 +18°C° 0 mm 2 mps 763 mmHg 66%
    01:00 +18°C° 0 mm 2 mps 763 mmHg 67%
    02:00 +17°C° 0 mm 2 mps 762 mmHg 68%
    03:00 +17°C° 0 mm 2 mps 762 mmHg 69%
    04:00 +17°C° 0 mm 2 mps 762 mmHg 69%
    05:00 +17°C° 0 mm 2 mps 762 mmHg 70%
    06:00 +18°C° 0 mm 2 mps 762 mmHg 64%
    07:00 +19°C° 0 mm 2 mps 763 mmHg 59%
    08:00 +21°C° 0 mm 3 mps 763 mmHg 53%
    09:00 +22°C° 0 mm 4 mps 763 mmHg 48%
    10:00 +23°C° 0 mm 4 mps 763 mmHg 43%
    11:00 +25°C° 0 mm 4 mps 763 mmHg 38%
    12:00 +25°C° 0 mm 4 mps 763 mmHg 37%
    13:00 +26°C° 0 mm 4 mps 762 mmHg 35%
    14:00 +26°C° 0 mm 4 mps 762 mmHg 34%
    15:00 +25°C° 0 mm 4 mps 762 mmHg 37%
    16:00 +25°C° 0 mm 4 mps 762 mmHg 39%
    17:00 +23°C° 0 mm 4 mps 762 mmHg 41%
    18:00 +21°C° 0 mm 4 mps 762 mmHg 46%
    19:00 +20°C° 0 mm 3 mps 762 mmHg 52%
    20:00 +19°C° 0 mm 3 mps 762 mmHg 57%
    21:00 +18°C° 0 mm 3 mps 762 mmHg 59%
    22:00 +18°C° 0 mm 2 mps 762 mmHg 61%
    23:00 +17°C° 0 mm 2 mps 762 mmHg 62%

    Tomorrow, 19 September, Wednesday

    Time Temperature Precipitation Wind Pressure Humidity
    00:00 +17°C° 0 mm 2 mps 762 mmHg 64%
    01:00 +18°C° 0 mm 1 mps 762 mmHg 65%
    02:00 +16°C° 0 mm 1 mps 762 mmHg 67%
    03:00 +16°C° 0 mm 1 mps 762 mmHg 68%
    04:00 +16°C° 0 mm 1 mps 762 mmHg 69%
    05:00 +16°C° 0 mm 2 mps 762 mmHg 70%
    06:00 +17°C° 0 mm 2 mps 762 mmHg 65%
    07:00 +18°C° 0 mm 2 mps 763 mmHg 60%
    08:00 +20°C° 0 mm 2 mps 763 mmHg 55%
    09:00 +21°C° 0 mm 3 mps 763 mmHg 50%
    10:00 +24°C° 0 mm 3 mps 763 mmHg 44%
    11:00 +25°C° 0 mm 3 mps 763 mmHg 38%
    12:00 +26°C° 0 mm 4 mps 762 mmHg 37%
    13:00 +26°C° 0 mm 4 mps 762 mmHg 35%
    14:00 +27°C° 0 mm 4 mps 762 mmHg 34%
    15:00 +26°C° 0 mm 4 mps 762 mmHg 38%
    16:00 +25°C° 0 mm 4 mps 761 mmHg 41%
    17:00 +25°C° 0 mm 4 mps 761 mmHg 45%
    18:00 +22°C° 0 mm 4 mps 761 mmHg 52%
    19:00 +20°C° 0 mm 4 mps 762 mmHg 58%
    20:00 +19°C° 0 mm 3 mps 762 mmHg 65%
    21:00 +19°C° 0 mm 3 mps 762 mmHg 68%
    22:00 +18°C° 0 mm 3 mps 762 mmHg 70%
    23:00 +18°C° 0 mm 2 mps 762 mmHg 73%

    Day after tomorrow, 20 September, Thursday

    Time Temperature Precipitation Wind Pressure Humidity
    00:00 +18°C° 0 mm 2 mps 762 mmHg 75%
    01:00 +17°C° 0 mm 2 mps 761 mmHg 77%
    02:00 +17°C° 0 mm 2 mps 761 mmHg 79%
    03:00 +17°C° 0 mm 2 mps 761 mmHg 79%
    04:00 +17°C° 0 mm 2 mps 761 mmHg 80%
    05:00 +16°C° 0 mm 2 mps 761 mmHg 81%
    06:00 +18°C° 0 mm 3 mps 761 mmHg 75%
    07:00 +19°C° 0 mm 3 mps 761 mmHg 69%
    08:00 +20°C° 0 mm 4 mps 761 mmHg 63%
    09:00 +22°C° 0 mm 4 mps 761 mmHg 56%
    10:00 +25°C° 0 mm 4 mps 761 mmHg 49%
    11:00 +27°C° 0 mm 4 mps 761 mmHg 42%
    12:00 +27°C° 0 mm 5 mps 761 mmHg 41%
    13:00 +28°C° 0 mm 5 mps 760 mmHg 39%
    14:00 +28°C° 0 mm 5 mps 760 mmHg 38%
    15:00 +28°C° 0 mm 4 mps 760 mmHg 41%
    16:00 +27°C° 0 mm 4 mps 760 mmHg 43%
    17:00 +26°C° 0 mm 4 mps 759 mmHg 46%
    18:00 +23°C° 0 mm 4 mps 759 mmHg 54%
    19:00 +22°C° 0 mm 3 mps 759 mmHg 62%
    20:00 +20°C° 0 mm 3 mps 759 mmHg 70%
    21:00 +20°C° 0 mm 2 mps 759 mmHg 72%
    22:00 +19°C° 0 mm 2 mps 759 mmHg 74%
    23:00 +19°C° 0 mm 2 mps 759 mmHg 77%

    21 September, Friday

    Time Temperature Precipitation Wind Pressure Humidity
    00:00 +18°C° 0 mm 2 mps 759 mmHg 77%
    01:00 +18°C° 0 mm 2 mps 759 mmHg 77%
    02:00 +18°C° 0 mm 2 mps 759 mmHg 78%
    03:00 +18°C° 0 mm 2 mps 759 mmHg 77%
    04:00 +17°C° 0 mm 2 mps 759 mmHg 76%
    05:00 +17°C° 0 mm 3 mps 759 mmHg 75%
    06:00 +18°C° 0 mm 3 mps 759 mmHg 68%
    07:00 +20°C° 0 mm 3 mps 759 mmHg 60%
    08:00 +21°C° 0 mm 3 mps 759 mmHg 53%
    09:00 +24°C° 0 mm 3 mps 759 mmHg 47%
    10:00 +26°C° 0 mm 4 mps 759 mmHg 42%
    11:00 +28°C° 0 mm 4 mps 759 mmHg 36%
    12:00 +28°C° 0 mm 4 mps 759 mmHg 35%
    13:00 +29°C° 0 mm 4 mps 758 mmHg 34%
    14:00 +29°C° 0 mm 4 mps 758 mmHg 33%
    15:00 +28°C° 0 mm 4 mps 758 mmHg 36%
    16:00 +28°C° 0 mm 4 mps 758 mmHg 39%
    17:00 +27°C° 0 mm 4 mps 757 mmHg 42%
    18:00 +25°C° 0 mm 3 mps 757 mmHg 50%
    19:00 +22°C° 0 mm 3 mps 757 mmHg 59%
    20:00 +20°C° 0 mm 2 mps 757 mmHg 68%
    21:00 +20°C° 0 mm 2 mps 757 mmHg 72%
    22:00 +19°C° 0 mm 2 mps 757 mmHg 76%
    23:00 +20°C° 0 mm 1 mps 757 mmHg 80%

    22 September, Saturday

    Time Temperature Precipitation Wind Pressure Humidity
    00:00 +19°C° 0 mm 1 mps 757 mmHg 82%
    01:00 +19°C° 0 mm 1 mps 757 mmHg 83%
    02:00 +19°C° 0 mm 1 mps 756 mmHg 85%
    03:00 +18°C° 0 mm 1 mps 756 mmHg 85%
    04:00 +18°C° 0 mm 1 mps 756 mmHg 85%
    05:00 +18°C° 0 mm 1 mps 756 mmHg 84%
    06:00 +19°C° 0 mm 1 mps 756 mmHg 77%
    07:00 +20°C° 0 mm 1 mps 756 mmHg 70%
    08:00 +22°C° 0 mm 1 mps 756 mmHg 63%
    09:00 +24°C° 0 mm 1 mps 756 mmHg 54%
    10:00 +26°C° 0 mm 1 mps 756 mmHg 45%
    11:00 +28°C° 0 mm 1 mps 756 mmHg 37%
    12:00 +29°C° 0 mm 2 mps 756 mmHg 34%
    13:00 +30°C° 0 mm 2 mps 755 mmHg 31%
    14:00 +30°C° 0 mm 3 mps 755 mmHg 28%
    15:00 +30°C° 0 mm 3 mps 755 mmHg 30%
    16:00 +29°C° 0 mm 3 mps 754 mmHg 33%
    17:00 +28°C° 0 mm 4 mps 754 mmHg 35%
    18:00 +27°C° 0 mm 4 mps 754 mmHg 42%
    19:00 +25°C° 0 mm 4 mps 754 mmHg 49%
    20:00 +22°C° 0 mm 4 mps 754 mmHg 56%
    21:00 +21°C° 0 mm 4 mps 754 mmHg 57%
    22:00 +21°C° 0 mm 4 mps 754 mmHg 58%
    23:00 +21°C° 0 mm 5 mps 755 mmHg 58%

    23 September, Sunday

    Time Temperature Precipitation Wind Pressure Humidity
    00:00 +20°C° 0 mm 6 mps 755 mmHg 58%
    01:00 +18°C° 0 mm 8 mps 755 mmHg 57%
    02:00 +18°C° 0 mm 10 mps 756 mmHg 56%
    03:00 +16°C° 0.7 mm 10 mps 756 mmHg 63%
    04:00 +13°C° 0.7 mm 10 mps 757 mmHg 70%
    05:00 +11°C° 0.7 mm 10 mps 757 mmHg 78%
    06:00 +11°C° 0.6 mm 9 mps 758 mmHg 74%
    07:00 +11°C° 0.6 mm 9 mps 758 mmHg 71%
    08:00 +11°C° 0.6 mm 9 mps 758 mmHg 67%
    09:00 +12°C° 0.1 mm 8 mps 759 mmHg 61%
    10:00 +13°C° 0.1 mm 8 mps 759 mmHg 54%
    11:00 +15°C° 0.1 mm 8 mps 759 mmHg 48%
    12:00 +17°C° 0 mm 8 mps 759 mmHg 42%
    13:00 +18°C° 0 mm 8 mps 759 mmHg 36%
    14:00 +21°C° 0 mm 8 mps 758 mmHg 30%
    15:00 +21°C° 0 mm 8 mps 758 mmHg 30%
    16:00 +20°C° 0 mm 7 mps 758 mmHg 29%
    17:00 +20°C° 0 mm 7 mps 758 mmHg 29%
    18:00 +19°C° 0 mm 6 mps 758 mmHg 32%
    19:00 +16°C° 0 mm 5 mps 759 mmHg 35%
    20:00 +15°C° 0 mm 4 mps 759 mmHg 38%
    21:00 +14°C° 0 mm 4 mps 759 mmHg 41%
    22:00 +14°C° 0 mm 3 mps 759 mmHg 44%
    23:00 +13°C° 0 mm 3 mps 759 mmHg 47%
    Show more